Flag for Italy Weather past 2 weeks in Bolzano, Italy

Now
82 °F

Scattered clouds.


Feels Like: 82 °F
Forecast: 58 / 75 °F
Wind: 13 mph from South

Location: Bolzano

Current Time: Jul 28, 2015 at 8:28:05 PM

Latest Report: Jul 28, 2015 at 7:50 PM


Visibility: N/A

Pressure: 29.65 "Hg

Humidity: 45%

Dew point: 59 °F

Location of BolzanoLocation

Historic Weather in Bolzano — Graph

°F

Bolzano temperature yesterday

Maximum temperature yesterday: 88 °F (at 2:50 PM)
Minimum temperature yesterday: 70 °F (at 6:50 AM)
Average temperature yesterday: 81 °F

Past Weeks' High & Low Weather Summary

 TemperatureHumidityPressure
High100 °F (Jul 21, 4:50 PM)94% (Jul 25, 6:50 AM)30.18 "Hg (Jul 25, 6:50 AM)
Low61 °F (Jul 26, 8:50 PM)22% (Jul 18, 3:50 PM)29.59 "Hg (Jul 27, 3:50 PM)
Average85 °F47%29.90 "Hg
* Reported Jul 13 6:50 PM — Jul 28 6:50 PM, Bolzano, Weather by CustomWeather, © 2015

Note: Actual official high and low records may vary slightly from our data, if they occured in-between our weather recording intervals... More about our weather records

Advertising

Bolzano weather history for previous 24 hours

 ConditionsComfort  
Time TempWeatherWind HumidityBarometerVisibility
6:50 PM
Tue, Jul 28
86 °FScattered clouds.10 mph43%29.65 "HgN/A
5:50 PM88 °FScattered clouds.9 mph40%29.65 "HgN/A
4:50 PM86 °FScattered clouds.9 mph43%29.65 "HgN/A
3:50 PM86 °FPartly sunny.12 mph43%29.65 "HgN/A
2:50 PM86 °FScattered clouds.9 mph46%29.68 "HgN/A
1:50 PM86 °FPassing clouds.7 mph49%29.71 "HgN/A
12:50 PM84 °FPassing clouds.2 mph40%29.74 "HgN/A
11:50 AM81 °FPassing clouds.2 mph45%29.74 "HgN/A
10:50 AM81 °FPassing clouds.2 mph42%29.77 "HgN/A
9:50 AM75 °FScattered clouds.1 mph47%29.80 "HgN/A
8:50 AM72 °FPartly sunny.1 mph53%29.80 "HgN/A
7:50 AM72 °FPartly sunny.2 mph61%29.77 "HgN/A
6:50 AM68 °FPartly sunny.2 mph73%29.77 "HgN/A
10:50 PM
Mon, Jul 27
77 °FPassing clouds.2 mph51%29.68 "HgN/A
9:50 PM81 °FPassing clouds.3 mph42%29.65 "HgN/A
8:50 PM88 °FPassing clouds.9 mph33%29.62 "HgN/A
Weather by CustomWeather, © 2015

See weather overviewHow to use our weather pages